Location: Unspecified
(0.0000°N, 0.0000°E)
Time: 13:48:33
(UTC+00:00)

JUGNU - Pass Details

Date: 24 February 2020
Orbit: 836 x 864 km, 20.0° (Epoch: 01 April)

Event Time Altitude Azimuth Distance (km) Brightness Sun altitude
Rises 20:50:18 0° 264° (W) 3,371 ? -38.6°
Reaches altitude 10° 20:53:18 10° 251° (WSW) 2,436 ? -39.4°
Enters shadow 20:55:54 20° 228° (SW) 1,825 ? -40.0°
